Weather History for KHDE - November, 2013

Change the Weather History Date:

Friday, November 29, 2013

  Actual Average Record
Temperature  
Mean Temperature 31 °F -  
Max Temperature 46 °F 40 °F 70 °F (2014)
Min Temperature 16 °F 19 °F -2 °F (1976)
Degree Days  
Heating Degree Days 34    
Moisture  
Dew Point 21 °F    
Average Humidity 75    
Maximum Humidity 91    
Minimum Humidity 50    
Precipitation  
Precipitation 0.00 in - - ()
Sea Level Pressure  
Sea Level Pressure 30.20 in    
Wind  
Wind Speed 7 mph (South)    
Max Wind Speed 15 mph    
Max Gust Speed 20 mph    
Visibility 10 miles    
Events      
Averages and records for this station are not official NWS values.
T = Trace of Precipitation, MM = Missing Value Source: NWS Daily Summary

Daily Weather History Graph

Daily Weather History Graph

Search for Another Location

Airport or City:

Trip Planner

Search our weather history database for the weather conditions in past years. The results will help you decide how hot, cold, wet, or windy it might be!

Date:

Astronomy

Nov. 29, 2013 Rise Set
Actual Time 7:39 AM CST 5:11 PM CST
Civil Twilight 7:09 AM CST 5:42 PM CST
Nautical Twilight 6:35 AM CST 6:15 PM CST
Astronomical Twilight 6:02 AM CST 6:48 PM CST
Moon 3:46 AM CST (11/29) 2:58 PM CST (11/29)
Length of Visible Light 10h 32m
Length of Day
9h 32m
Waning Crescent, 14% of the Moon is Illuminated
Nov 29
Waning Crescent
Dec 2
New
Dec 9
First Quarter
Dec 17
Full
Dec 25
Last Quarter

Hourly Weather History & Observations

Time (CST) Temp. Windchill Dew Point Humidity Pressure Visibility Wind Dir Wind Speed Gust Speed Precip Events Conditions
12:15 AM 19.4 °F 10.4 °F 14.7 °F 82% 30.37 in 10.0 mi SSE 6.9 mph - N/A   Clear
12:35 AM 19.2 °F 10.2 °F 14.5 °F 82% 30.37 in 10.0 mi SSE 6.9 mph - N/A   Clear
12:55 AM 19.0 °F 10.0 °F 14.4 °F 82% 30.36 in 10.0 mi SSE 6.9 mph - N/A   Clear
1:15 AM 18.5 °F 9.3 °F 13.6 °F 81% 30.36 in 10.0 mi SSE 6.9 mph - N/A   Clear
1:35 AM 18.3 °F 9.1 °F 13.6 °F 82% 30.36 in 10.0 mi SSE 6.9 mph - N/A   Clear
1:55 AM 18.3 °F 10.2 °F 13.5 °F 81% 30.34 in 10.0 mi SE 5.8 mph - N/A   Clear
2:15 AM 16.7 °F 8.3 °F 12.4 °F 83% 30.34 in 10.0 mi SSE 5.8 mph - N/A   Clear
2:35 AM 18.1 °F 10.0 °F 14.0 °F 84% 30.34 in 10.0 mi South 5.8 mph - N/A   Clear
2:55 AM 18.7 °F 10.6 °F 14.9 °F 85% 30.34 in 10.0 mi South 5.8 mph - N/A   Clear
3:15 AM 19.4 °F 9.5 °F 15.1 °F 83% 30.34 in 10.0 mi South 8.1 mph - N/A   Clear
3:35 AM 19.2 °F 8.4 °F 15.3 °F 85% 30.34 in 10.0 mi South 9.2 mph - N/A   Clear
3:55 AM 19.4 °F 11.5 °F 15.8 °F 86% 30.33 in 10.0 mi South 5.8 mph - N/A   Clear
4:15 AM 19.8 °F 11.9 °F 16.2 °F 86% 30.32 in 10.0 mi South 5.8 mph - N/A   Clear
4:35 AM 19.2 °F 11.3 °F 15.8 °F 87% 30.31 in 10.0 mi SSE 5.8 mph - N/A   Clear
4:55 AM 19.0 °F 11.1 °F 15.8 °F 87% 30.30 in 10.0 mi SSE 5.8 mph - N/A   Clear
5:15 AM 19.9 °F 9.3 °F 17.2 °F 89% 30.30 in 10.0 mi South 9.2 mph - N/A   Clear
5:35 AM 21.0 °F 9.9 °F 17.8 °F 87% 30.30 in 10.0 mi South 10.4 mph - N/A   Clear
5:55 AM 20.3 °F 11.5 °F 17.4 °F 89% 30.29 in 10.0 mi SSE 6.9 mph - N/A   Clear
6:15 AM 19.2 °F 10.2 °F 16.3 °F 89% 30.29 in 10.0 mi SSE 6.9 mph - N/A   Clear
6:35 AM 18.5 °F 9.3 °F 15.8 °F 89% 30.28 in 10.0 mi SSE 6.9 mph - N/A   Clear
6:55 AM 18.9 °F 9.8 °F 16.2 °F 89% 30.28 in 10.0 mi SSE 6.9 mph - N/A   Clear
7:15 AM 19.2 °F 11.3 °F 16.3 °F 89% 30.27 in 10.0 mi SSE 5.8 mph - N/A   Clear
7:35 AM 20.3 °F 10.6 °F 17.4 °F 89% 30.27 in 10.0 mi SSE 8.1 mph - N/A   Clear
7:55 AM 21.2 °F 10.9 °F 17.6 °F 86% 30.27 in 10.0 mi South 9.2 mph - N/A   Clear
8:15 AM 21.2 °F 11.7 °F 17.4 °F 85% 30.27 in 10.0 mi South 8.1 mph - N/A   Clear
8:35 AM 22.3 °F 10.2 °F 18.1 °F 84% 30.26 in 10.0 mi South 12.7 mph - N/A   Clear
8:55 AM 23.7 °F 12.1 °F 19.0 °F 82% 30.25 in 10.0 mi South 12.7 mph 17.3 mph N/A   Clear
9:15 AM 25.2 °F 13.3 °F 19.8 °F 80% 30.25 in 10.0 mi South 13.8 mph 19.6 mph N/A   Clear
9:35 AM 26.8 °F 17.1 °F 21.0 °F 79% 30.25 in 10.0 mi South 10.4 mph 17.3 mph N/A   Clear
9:55 AM 28.8 °F 18.4 °F 22.1 °F 76% 30.25 in 10.0 mi South 12.7 mph 17.3 mph N/A   Clear
10:15 AM 30.0 °F 21.1 °F 23.2 °F 76% 30.24 in 10.0 mi South 10.4 mph 18.4 mph N/A   Clear
10:35 AM 32.2 °F 22.7 °F 24.4 °F 73% 30.23 in 10.0 mi South 12.7 mph - N/A   Clear
10:55 AM 33.3 °F 25.1 °F 24.3 °F 70% 30.23 in 10.0 mi South 10.4 mph - N/A   Clear
11:15 AM 34.3 °F 25.9 °F 24.3 °F 67% 30.21 in 10.0 mi South 11.5 mph - N/A   Clear
11:35 AM 36.0 °F 28.0 °F 24.8 °F 64% 30.20 in 10.0 mi South 11.5 mph - N/A   Clear
11:55 AM 37.6 °F 29.1 °F 25.2 °F 61% 30.18 in 10.0 mi South 13.8 mph - N/A   Clear
12:15 PM 38.7 °F 30.5 °F 25.3 °F 59% 30.17 in 10.0 mi SSW 13.8 mph - N/A   Clear
12:35 PM 39.4 °F 31.4 °F 25.5 °F 58% 30.16 in 10.0 mi South 13.8 mph - N/A   Clear
12:55 PM 40.1 °F 34.1 °F 25.7 °F 56% 30.15 in 10.0 mi South 9.2 mph - N/A   Clear
1:15 PM 41.2 °F 34.5 °F 25.9 °F 55% 30.13 in 10.0 mi South 11.5 mph - N/A   Clear
1:35 PM 41.0 °F 34.3 °F 25.9 °F 55% 30.13 in 10.0 mi South 11.5 mph 19.6 mph N/A   Clear
1:55 PM 42.3 °F 35.9 °F 26.2 °F 53% 30.12 in 10.0 mi South 11.5 mph 16.1 mph N/A   Clear
2:15 PM 43.0 °F 36.0 °F 26.6 °F 52% 30.10 in 10.0 mi South 13.8 mph - N/A   Clear
2:35 PM 43.9 °F 37.2 °F 27.3 °F 52% 30.10 in 10.0 mi South 13.8 mph - N/A   Clear
2:55 PM 43.9 °F 36.8 °F 27.5 °F 53% 30.09 in 10.0 mi South 15.0 mph - N/A   Clear
3:15 PM 44.6 °F 38.1 °F 27.5 °F 51% 30.09 in 10.0 mi South 13.8 mph - N/A   Clear
3:35 PM 45.5 °F 39.9 °F 28.0 °F 51% 30.09 in 10.0 mi South 11.5 mph - N/A   Clear
3:55 PM 46.0 °F 41.4 °F 28.4 °F 50% 30.09 in 10.0 mi South 9.2 mph - N/A   Clear
4:15 PM 45.9 °F 41.7 °F 29.1 °F 52% 30.09 in 10.0 mi South 8.1 mph - N/A   Clear
4:35 PM 44.6 °F 42.2 °F 28.9 °F 54% 30.09 in 10.0 mi South 4.6 mph - N/A   Clear
4:55 PM 41.9 °F 40.0 °F 28.4 °F 59% 30.09 in 10.0 mi South 3.5 mph - N/A   Clear
5:15 PM 41.0 °F 37.1 °F 28.2 °F 60% 30.08 in 10.0 mi SSW 5.8 mph - N/A   Clear
5:35 PM 37.4 °F 34.9 °F 27.1 °F 66% 30.08 in 10.0 mi SSW 3.5 mph - N/A   Clear
5:55 PM 34.5 °F 30.4 °F 24.8 °F 68% 30.08 in 10.0 mi SSE 4.6 mph - N/A   Clear
6:15 PM 34.0 °F 31.0 °F 25.9 °F 72% 30.08 in 10.0 mi South 3.5 mph - N/A   Clear
6:35 PM 31.5 °F - 24.3 °F 75% 30.09 in 10.0 mi Calm Calm - N/A   Clear
6:55 PM 31.6 °F - 24.1 °F 74% 30.09 in 10.0 mi Calm Calm - N/A   Clear
7:15 PM 34.5 °F - 26.4 °F 72% 30.09 in 10.0 mi Calm Calm - N/A   Clear
7:35 PM 27.0 °F - 20.8 °F 78% 30.09 in 10.0 mi Calm Calm - N/A   Clear
7:55 PM 26.2 °F - 20.1 °F 78% 30.09 in 10.0 mi Calm Calm - N/A   Clear
8:15 PM 28.4 °F - 23.0 °F 80% 30.09 in 10.0 mi Calm Calm - N/A   Clear
8:35 PM 26.1 °F - 21.0 °F 81% 30.09 in 10.0 mi Calm Calm - N/A   Clear
8:55 PM 25.9 °F - 21.4 °F 83% 30.09 in 10.0 mi Calm Calm - N/A   Clear
9:15 PM 25.0 °F - 19.8 °F 81% 30.09 in 10.0 mi Calm Calm - N/A   Clear
9:35 PM 24.8 °F - 19.9 °F 82% 30.09 in 10.0 mi Calm Calm - N/A   Clear
9:55 PM 24.3 °F - 19.0 °F 80% 30.09 in 10.0 mi Calm Calm - N/A   Clear
10:15 PM 24.4 °F - 20.7 °F 86% 30.10 in 10.0 mi Calm Calm - N/A   Clear
10:35 PM 25.3 °F - 21.7 °F 86% 30.10 in 10.0 mi Calm Calm - N/A   Clear
10:55 PM 24.1 °F - 20.5 °F 86% 30.09 in 10.0 mi Calm Calm - N/A   Clear
11:15 PM 23.4 °F 18.9 °F 18.5 °F 82% 30.09 in 10.0 mi West 3.5 mph - N/A   Clear
11:35 PM 25.2 °F 20.9 °F 22.8 °F 91% 30.09 in 10.0 mi WNW 3.5 mph - N/A   Clear
11:55 PM 25.9 °F 21.7 °F 22.5 °F 87% 30.08 in 10.0 mi West 3.5 mph - N/A   Clear